When you browse on this site, cookies collect data to enhance your experience and personalize the content and advertising you see.
Visit our Privacy Policy to learn more. By continuing to use the site, you agree to this use of cookies and data.
  • en France
  • Liste des pays
  • À 7 jours
  • Température de l'eau
  • Carte satellitaire
  • Carte météo
  • Widgets météo
  • user-avatar
    Se connecter

    Météo par heure à Brecon

    Ce jour, 18 Décembre, Mardi

    Heure Température Précipitation Vent Pression Humidité
    00:00 +7°C° 0 mm 9 m/s 742 mmHg 88%
    01:00 +8°C° 0.2 mm 10 m/s 742 mmHg 88%
    02:00 +8°C° 0.2 mm 10 m/s 741 mmHg 87%
    03:00 +8°C° 0.2 mm 11 m/s 740 mmHg 86%
    04:00 +8°C° 0.1 mm 11 m/s 740 mmHg 84%
    05:00 +8°C° 0.1 mm 12 m/s 739 mmHg 83%
    06:00 +8°C° 0.1 mm 12 m/s 738 mmHg 81%
    07:00 +7°C° 0.5 mm 13 m/s 737 mmHg 82%
    08:00 +7°C° 0.5 mm 13 m/s 737 mmHg 82%
    09:00 +7°C° 0.5 mm 13 m/s 736 mmHg 82%
    10:00 +7°C° 1.2 mm 13 m/s 736 mmHg 83%
    11:00 +7°C° 1.2 mm 12 m/s 735 mmHg 85%
    12:00 +7°C° 1.2 mm 12 m/s 735 mmHg 86%
    13:00 +7°C° 2.1 mm 10 m/s 734 mmHg 88%
    14:00 +7°C° 2.1 mm 9 m/s 734 mmHg 89%
    15:00 +8°C° 2.1 mm 7 m/s 734 mmHg 90%
    16:00 +6°C° 0.8 mm 7 m/s 734 mmHg 89%
    17:00 +7°C° 0.8 mm 6 m/s 734 mmHg 88%
    18:00 +7°C° 0.8 mm 6 m/s 734 mmHg 87%
    19:00 +5°C° 0.1 mm 6 m/s 734 mmHg 87%
    20:00 +5°C° 0.1 mm 6 m/s 735 mmHg 87%
    21:00 +6°C° 0.1 mm 5 m/s 735 mmHg 88%
    22:00 +5°C° 0.1 mm 5 m/s 735 mmHg 88%
    23:00 +5°C° 0.1 mm 5 m/s 735 mmHg 88%

    Demain, 19 Décembre, Mercredi

    Heure Température Précipitation Vent Pression Humidité
    00:00 +5°C° 0.1 mm 5 m/s 736 mmHg 88%
    01:00 +5°C° 0.3 mm 5 m/s 736 mmHg 89%
    02:00 +5°C° 0.3 mm 5 m/s 736 mmHg 89%
    03:00 +5°C° 0.3 mm 5 m/s 736 mmHg 89%
    04:00 +5°C° 0.3 mm 5 m/s 736 mmHg 89%
    05:00 +5°C° 0.3 mm 4 m/s 736 mmHg 89%
    06:00 +5°C° 0.3 mm 4 m/s 736 mmHg 89%
    07:00 +3°C° 0.1 mm 5 m/s 736 mmHg 88%
    08:00 +3°C° 0.1 mm 5 m/s 736 mmHg 88%
    09:00 +3°C° 0.1 mm 5 m/s 737 mmHg 88%
    10:00 +4°C° 0.1 mm 6 m/s 737 mmHg 85%
    11:00 +5°C° 0.1 mm 6 m/s 737 mmHg 81%
    12:00 +6°C° 0.1 mm 7 m/s 737 mmHg 78%
    13:00 +5°C° 0.3 mm 7 m/s 736 mmHg 79%
    14:00 +5°C° 0.3 mm 7 m/s 736 mmHg 79%
    15:00 +5°C° 0.3 mm 7 m/s 736 mmHg 80%
    16:00 +5°C° 0.7 mm 7 m/s 736 mmHg 81%
    17:00 +5°C° 0.7 mm 8 m/s 736 mmHg 83%
    18:00 +5°C° 0.7 mm 8 m/s 735 mmHg 84%
    19:00 +4°C° 0.4 mm 7 m/s 736 mmHg 84%
    20:00 +4°C° 0.4 mm 7 m/s 736 mmHg 83%
    21:00 +4°C° 0.4 mm 7 m/s 736 mmHg 83%
    22:00 +4°C° 0.4 mm 7 m/s 736 mmHg 83%
    23:00 +4°C° 0.4 mm 7 m/s 736 mmHg 84%

    Après-demain, 20 Décembre, Jeudi

    Heure Température Précipitation Vent Pression Humidité
    00:00 +4°C° 0.4 mm 7 m/s 736 mmHg 84%
    01:00 +4°C° 0.4 mm 7 m/s 737 mmHg 84%
    02:00 +4°C° 0.4 mm 7 m/s 737 mmHg 84%
    03:00 +4°C° 0.4 mm 7 m/s 737 mmHg 84%
    04:00 +4°C° 0.1 mm 7 m/s 738 mmHg 84%
    05:00 +4°C° 0.1 mm 7 m/s 738 mmHg 84%
    06:00 +4°C° 0.1 mm 7 m/s 738 mmHg 85%
    07:00 +4°C° 0.1 mm 7 m/s 739 mmHg 85%
    08:00 +4°C° 0.1 mm 7 m/s 739 mmHg 85%
    09:00 +4°C° 0.1 mm 6 m/s 740 mmHg 86%
    10:00 +5°C° 0.2 mm 7 m/s 740 mmHg 83%
    11:00 +6°C° 0.2 mm 7 m/s 741 mmHg 80%
    12:00 +6°C° 0.2 mm 7 m/s 741 mmHg 77%
    13:00 +6°C° 0.1 mm 7 m/s 741 mmHg 78%
    14:00 +6°C° 0.1 mm 7 m/s 741 mmHg 79%
    15:00 +6°C° 0.1 mm 7 m/s 741 mmHg 81%
    16:00 +5°C° 0.1 mm 6 m/s 741 mmHg 83%
    17:00 +6°C° 0.1 mm 5 m/s 741 mmHg 85%
    18:00 +5°C° 0.1 mm 4 m/s 741 mmHg 87%
    19:00 +5°C° 0.1 mm 4 m/s 740 mmHg 89%
    20:00 +6°C° 0.1 mm 4 m/s 739 mmHg 90%
    21:00 +6°C° 0.1 mm 4 m/s 739 mmHg 92%
    22:00 +7°C° 1 mm 5 m/s 738 mmHg 93%
    23:00 +8°C° 1 mm 5 m/s 736 mmHg 95%

    21 Décembre, Vendredi

    Heure Température Précipitation Vent Pression Humidité
    00:00 +8°C° 1 mm 6 m/s 735 mmHg 96%
    01:00 +9°C° 1.5 mm 7 m/s 734 mmHg 95%
    02:00 +10°C° 1.5 mm 8 m/s 733 mmHg 94%
    03:00 +11°C° 1.5 mm 9 m/s 732 mmHg 94%
    04:00 +11°C° 0.5 mm 10 m/s 732 mmHg 92%
    05:00 +11°C° 0.5 mm 11 m/s 732 mmHg 91%
    06:00 +10°C° 0.5 mm 12 m/s 732 mmHg 89%
    07:00 +9°C° 0.1 mm 12 m/s 733 mmHg 85%
    08:00 +7°C° 0.1 mm 12 m/s 734 mmHg 81%
    09:00 +5°C° 0.1 mm 12 m/s 736 mmHg 77%
    10:00 +7°C° 0 mm 11 m/s 736 mmHg 76%
    11:00 +7°C° 0 mm 11 m/s 737 mmHg 75%
    12:00 +7°C° 0 mm 11 m/s 738 mmHg 74%
    13:00 +7°C° 0.2 mm 11 m/s 738 mmHg 77%
    14:00 +8°C° 0.2 mm 11 m/s 738 mmHg 80%
    15:00 +8°C° 0.2 mm 11 m/s 739 mmHg 82%
    16:00 +8°C° 0.3 mm 10 m/s 739 mmHg 84%
    17:00 +7°C° 0.3 mm 9 m/s 739 mmHg 86%
    18:00 +7°C° 0.3 mm 9 m/s 739 mmHg 88%
    19:00 +7°C° 1.7 mm 9 m/s 738 mmHg 88%
    20:00 +8°C° 1.7 mm 10 m/s 738 mmHg 87%
    21:00 +8°C° 1.7 mm 11 m/s 738 mmHg 87%
    22:00 +8°C° 0.6 mm 11 m/s 738 mmHg 86%
    23:00 +7°C° 0.6 mm 10 m/s 738 mmHg 85%

    22 Décembre, Samedi

    Heure Température Précipitation Vent Pression Humidité
    00:00 +7°C° 0.6 mm 10 m/s 738 mmHg 84%
    01:00 +7°C° 0.1 mm 10 m/s 739 mmHg 83%
    02:00 +6°C° 0.1 mm 9 m/s 739 mmHg 82%
    03:00 +6°C° 0.1 mm 9 m/s 739 mmHg 81%
    04:00 +5°C° 0 mm 9 m/s 740 mmHg 81%
    05:00 +5°C° 0 mm 8 m/s 740 mmHg 81%
    06:00 +5°C° 0 mm 8 m/s 741 mmHg 80%
    07:00 +5°C° 0 mm 7 m/s 741 mmHg 81%
    08:00 +5°C° 0 mm 7 m/s 742 mmHg 82%
    09:00 +4°C° 0 mm 6 m/s 743 mmHg 82%
    10:00 +5°C° 0 mm 7 m/s 743 mmHg 80%
    11:00 +6°C° 0 mm 7 m/s 744 mmHg 77%
    12:00 +8°C° 0 mm 7 m/s 744 mmHg 74%
    13:00 +6°C° 0 mm 7 m/s 745 mmHg 75%
    14:00 +6°C° 0 mm 7 m/s 745 mmHg 76%
    15:00 +7°C° 0 mm 6 m/s 745 mmHg 76%
    16:00 +5°C° 0 mm 6 m/s 745 mmHg 79%
    17:00 +6°C° 0 mm 5 m/s 746 mmHg 82%
    18:00 +5°C° 0 mm 5 m/s 746 mmHg 85%
    19:00 +5°C° 0 mm 5 m/s 747 mmHg 86%
    20:00 +5°C° 0 mm 4 m/s 747 mmHg 87%
    21:00 +5°C° 0 mm 4 m/s 747 mmHg 89%
    22:00 +6°C° 0 mm 4 m/s 747 mmHg 90%
    23:00 +6°C° 0 mm 4 m/s 747 mmHg 91%

    23 Décembre, Dimanche

    Heure Température Précipitation Vent Pression Humidité
    00:00 +6°C° 0 mm 4 m/s 747 mmHg 92%
    01:00 +6°C° 0 mm 4 m/s 747 mmHg 93%
    02:00 +6°C° 0 mm 4 m/s 747 mmHg 94%
    03:00 +7°C° 0 mm 3 m/s 747 mmHg 95%
    04:00 +7°C° 0 mm 3 m/s 747 mmHg 95%
    05:00 +7°C° 0 mm 3 m/s 746 mmHg 95%
    06:00 +7°C° 0 mm 3 m/s 746 mmHg 96%
    07:00 +6°C° 0.2 mm 4 m/s 746 mmHg 95%
    08:00 +7°C° 0.2 mm 4 m/s 746 mmHg 95%
    09:00 +7°C° 0.2 mm 5 m/s 746 mmHg 95%
    10:00 +7°C° 0.7 mm 5 m/s 746 mmHg 95%
    11:00 +8°C° 0.7 mm 5 m/s 745 mmHg 95%
    12:00 +8°C° 0.7 mm 6 m/s 745 mmHg 95%
    13:00 +9°C° 0.8 mm 6 m/s 745 mmHg 95%
    14:00 +10°C° 0.8 mm 7 m/s 744 mmHg 94%
    15:00 +10°C° 0.8 mm 8 m/s 744 mmHg 94%
    16:00 +10°C° 0.8 mm 8 m/s 744 mmHg 93%
    17:00 +10°C° 0.8 mm 8 m/s 744 mmHg 92%
    18:00 +10°C° 0.8 mm 8 m/s 744 mmHg 92%
    19:00 +10°C° 0.2 mm 8 m/s 744 mmHg 92%
    20:00 +10°C° 0.2 mm 7 m/s 744 mmHg 92%
    21:00 +10°C° 0.2 mm 7 m/s 744 mmHg 93%
    22:00 +10°C° 0.1 mm 7 m/s 745 mmHg 93%
    23:00 +10°C° 0.1 mm 7 m/s 745 mmHg 93%
    Voir plus